Regional Weather Roundup
Issued by NWS

Home | Current Version | Previous Version | Text Only | Print | Product List | Glossary Off
Versions: 1 2 3 4 5 6 7 8 9 10 11 12 13 14 15 16 17 18 19 20 21 22 23 24 25 26 27 28 29 30 31 32 33 34 35 36 37 38 39 40 41 42 43 44 45 46 47 48 49 50

146
ASUS43 KOAX 290410
RWRNE

WEATHER ROUNDUP FOR NEBRASKA
NATIONAL WEATHER SERVICE OMAHA NE
1100 PM CDT WED JUN 28 2017

NOTES: SATELLITE DATA IS BEING USED TO AUGMENT CLOUD COVER ABOVE
       12000 FEET.
       "FAIR" INDICATES FEW OR NO CLOUDS BELOW 12,000 FEET WITH NO
       SIGNIFICANT WEATHER AND/OR OBSTRUCTIONS TO VISIBILITY.

  * THESE STATIONS DO NOT REPORT WEATHER SUCH AS RAIN...SNOW OR FOG.

NEZ001>004-019>022-054>056-290500-
NEBRASKA PANHANDLE

CITY           SKY/WX    TMP DP  RH WIND       PRES   REMARKS
SCOTTSBLUFF    PTCLDY    71  46  40 N8        29.80R
ALLIANCE       CLEAR     66  48  52 SE10      29.79R
CHADRON        CLOUDY    72  49  44 VRB7G26   29.77F
GORDON         HVY RAIN  62  53  73 N29G40    29.86R
KIMBALL        CLEAR     66  46  48 NE6       29.89R THUNDER
SIDNEY         CLEAR     61  52  72 E10       29.86R
$$

NEZ057>060-069>072-079>082-290500-
SOUTHWEST NEBRASKA

CITY           SKY/WX    TMP DP  RH WIND       PRES   REMARKS
NORTH PLATTE   CLOUDY    73  60  63 N7        29.83R
IMPERIAL       CLOUDY    76  46  34 E10G23    29.81R
LEXINGTON      CLOUDY    78  61  57 SE6       29.76S
MCCOOK         CLOUDY    76  57  51 SE5       29.76S
OGALLALA       CLOUDY    66  56  71 E9        29.82F
$$

NEZ005>010-023>029-035>040-094-290500-
NORTH CENTRAL NEBRASKA

CITY           SKY/WX    TMP DP  RH WIND       PRES   REMARKS
VALENTINE      PTCLDY    71  47  42 E8        29.76S
AINSWORTH      CLOUDY    68  58  71 E6        29.76S
BROKEN BOW     CLOUDY    71  59  65 E5        29.77R
O`NEILL        CLOUDY    71  59  66 NE6       29.75R
ORD            CLOUDY    68  62  81 CALM      29.73R
THEDFORD       LGT RAIN  75  51  42 S13       29.78F
$$

NEZ041-046>049-061>064-073>077-083>087-290500-
SOUTH CENTRAL NEBRASKA

CITY           SKY/WX    TMP DP  RH WIND       PRES   REMARKS
GRAND ISLAND   CLOUDY    74  68  81 SE3       29.72F
AURORA         MOCLDY    74  66  75 CALM      29.72F
HASTINGS       PTCLDY    78  58  49 CALM      29.75S
HEBRON         PTCLDY    76  68  75 CALM      29.72F
HOLDREGE       MOCLDY    74  60  63 E3        29.75F
KEARNEY *      PTCLDY    75  63  64 CALM      29.76S
YORK           CLEAR     73  64  73 CALM      29.73F
$$

NEZ011>018-030>034-042>045-290500-
NORTHEAST NEBRASKA

CITY           SKY/WX    TMP DP  RH WIND       PRES   REMARKS
NORFOLK        PTCLDY    71  65  81 N3        29.71R
ALBION         CLOUDY    71  64  76 CALM      29.73R
BLAIR          CLEAR     79  64  60 W6        29.71R
FREMONT        PTCLDY    76  67  73 NW5       29.71R
TEKAMAH        PTCLDY    72  64  76 CALM      29.68R
WAYNE          PTCLDY    68  68  98 CALM      29.71S
$$

NEZ050>053-065>068-078-088>093-290500-
SOUTHEAST NEBRASKA

CITY           SKY/WX    TMP DP  RH WIND       PRES   REMARKS
LINCOLN        CLEAR     75  67  76 CALM      29.72R
OMAHA EPPLEY   PTCLDY    74  64  71 N5        29.68R
BEATRICE       CLOUDY    79  71  76 SE3       29.74R
FALLS CITY     CLOUDY    81  69  67 W3        29.71R
NEBRASKA CITY  CLOUDY    77  73  89 S5        29.71S
PLATTSMOUTH    PTCLDY    76  66  71 W3        29.70S
$$

NEZ044-045-051>053-067-290500-
OMAHA AREA

CITY           SKY/WX    TMP DP  RH WIND       PRES   REMARKS
OMAHA EPPLEY   PTCLDY    74  64  71 N5        29.68R
BLAIR          CLEAR     79  64  60 W6        29.71R
FREMONT        PTCLDY    76  67  73 NW5       29.71R
MILLARD        CLEAR     75  67  78 NW5       29.69S
OFFUTT AFB     PTCLDY    70  66  89 CALM      29.68R
PLATTSMOUTH    PTCLDY    76  66  71 W3        29.70S
WAHOO          FAIR      75  65  70 W7        29.70R
$$




USA.gov is the U.S. government's official web portal to all federal, state and local government web resources and services.